Location: Unspecified
(0.0000°N, 0.0000°E)
Time: 07:27:34
(UTC+01:00)

Cosmos 2251 - Visible Passes

Search period start: 28 January 2022 00:00
Search period end: 07 February 2022 00:00
Orbit: 766 x 800 km, 74.0° (Epoch: 27 January)

Date Brightness Start Highest point End Pass type
(mag) Time Alt. Az. Time Alt. Az. Time Alt. Az.
28 Jan 6.0 05:18:03 23° NNE 05:20:58 45° ENE 05:26:03 10° SSE visible
29 Jan 6.9 04:47:13 23° ENE 04:48:27 25° ENE 04:52:46 10° SE visible
29 Jan 6.4 06:27:53 14° WNW 06:30:33 19° WSW 06:34:18 10° SSW visible
30 Jan 7.7 04:16:20 14° E 04:16:20 14° E 04:18:33 10° ESE visible
30 Jan 5.7 05:56:59 32° W 05:58:01 34° WSW 06:02:51 10° SSW visible
31 Jan 5.1 05:26:02 59° SW 05:26:02 59° SW 05:30:48 10° S visible
01 Feb 6.2 04:55:02 38° SSE 04:55:02 38° SSE 04:58:19 10° SSE visible
02 Feb 7.4 04:23:56 18° SE 04:23:56 18° SE 04:25:27 10° SE visible
03 Feb 7.2 05:33:25 13° SSW 05:33:25 13° SSW 05:34:08 10° SSW visible
04 Feb 7.5 05:02:12 12° S 05:02:12 12° S 05:02:30 10° S visible
